Location: Eckley Miners' Village
(40.9930°N, 75.8630°W)
Time: 11:18:33
(UTC-04:00)

Vanguard 1 Rocket - Pass Details

Date: 08 March 2026
Orbit: 654 x 4213 km, 34.3° (Epoch: 11 April)

Event Time Altitude Azimuth Distance (km) Brightness Sun altitude
Rises 12:30:28 0° 262° (W) 3,105 10.1 43.2°
Reaches altitude 10° 12:32:33 10° 255° (WSW) 2,324 9.6 43.3°
Maximum altitude 12:37:33 45° 183° (S) 1,353 10.6 43.5°
Drops below altitude 10° 12:45:50 10° 114° (ESE) 3,828 11.1 43.9°
Sets 12:50:15 0° 109° (ESE) 5,392 11.6 44.0°
